Current weather by "City, St" or "zip code"  
 

Current Conditions: ANGLETON

Cloudy


81.0 F

Last Updated on May 26 2024, 02:53 AM CDT
Humidity: 94%
Wind Speed: S 15.0 mph
Barometer 29.74 in
Dewpoint: 79.0 F
Visibility: 8.00 mi
Precip: --
Heat Index: 89.2 F
Wind Chill: NA
Current conditions at:

ANGLETON (KLBX)

Lat: 29.12 Lon: 95.47

active severe weather and emergency alerts image image weather storm and storm spotter reports image weather observation monitoring service image
Active
Alerts
Storm Reports Obs
Monitoring

Sign-up For Email & Text Message Weather Alert Notification Services



Advertise Here

Observation History for ANGLETON


Time Wind
(mph)
Vis
(mi)
Weather Precip (in) Temperature (F) Relative
Humidity
Wind
Chill
(F)
Heat
Index
(F)
Pressure
Air Dwpt altimeter
(in)
sea level
(mb)
Rmks
02:53 AM CDT S 15.0 8.00 Cloudy -- 81.0 79.0 94% NA 89.2 29.74 1007.1
01:53 AM CDT S 15.0 8.00 Cloudy -- 81.0 79.0 94% NA 89.2 29.76 1007.8
12:53 AM CDT S 12.8 8.00 Cloudy -- 82.0 79.0 90% NA 91.8 29.77 1008.1
11:53 PM CDT S 16.1 8.00 Cloudy -- 82.0 79.0 90% NA 91.8 29.79 1008.8
10:53 PM CDT S 13.9 9.00 Cloudy -- 82.0 79.0 90% NA 91.8 29.81 1009.2
09:53 PM CDT 16.1 10.00 Mostly Cloudy -- 82.0 78.1 88% NA 91.0 29.79 1008.8
07:53 PM CDT 10.3 10.00 Mostly Cloudy -- 82.9 79.0 88% NA 93.7 29.76 1007.8
06:53 PM CDT 8.1 10.00 Clear -- 84.9 77.0 77% NA 95.4 29.75 1007.5
05:53 PM CDT S 12.8 10.00 Clear -- 87.1 77.0 72% NA 98.8 29.76 1007.8
04:53 PM CDT S 17.2 10.00 Clear -- 88.0 73.9 63% NA 96.6 29.76 1007.8
03:53 PM CDT S 17.2 10.00 Mostly Clear -- 88.0 78.1 73% NA 101.7 29.79 1008.8
02:53 PM CDT 15.0 10.00 Clear -- 89.1 78.1 70% NA 103.3 29.81 1009.5
01:53 PM CDT 11.4 10.00 Clear -- 89.1 79.0 72% NA 104.5 29.82 1009.8
12:53 PM CDT 13.9 10.00 Mostly Clear -- 89.1 79.0 72% NA 104.5 29.83 1010.2
11:53 AM CDT S 13.9 9.00 Mostly Cloudy -- 88.0 79.0 75% NA 102.9 29.84 1010.5
10:53 AM CDT 10.3 8.00 Mostly Cloudy -- 87.1 79.0 77% NA 101.5 29.85 1010.8
09:53 AM CDT S 12.8 6.00 Haze -- 84.9 79.0 82% NA 97.7 29.84 1010.5
08:53 AM CDT S 8.1 6.00 Fog/Mist -- 82.9 80.1 91% NA 94.8 29.84 1010.5
07:53 AM CDT S 10.3 7.00 Cloudy -- 81.0 80.1 97% NA 90.0 29.82 1009.8
06:53 AM CDT S 8.1 6.00 Fog/Mist -- 80.1 79.0 97% NA 86.9 29.81 1009.5
05:53 AM CDT S 10.3 7.00 Cloudy -- 79.0 79.0 100% NA 83.7 29.78 1008.5
04:53 AM CDT S 10.3 6.00 Fog/Mist -- 79.0 79.0 100% NA 83.7 29.77 1008.1
03:53 AM CDT S 6.9 6.00 Fog/Mist -- 78.1 78.1 100% NA 80.8 29.77 1008.1
02:53 AM CDT 6.9 6.00 Fog/Mist -- 79.0 79.0 100% NA 83.7 29.78 1008.5

Regional Weather Observation


HOUSTON/SOUTHWST (KAXH)

Cloudy
81.7 F

HOUSTON/SUGAR LA (KSGR)

Cloudy
82.9 F

HOUSTON (KLVJ)

Cloudy
82.0 F

HOUSTON EXEC (KTME)

Fog/Mist
80.6 F

HOUSTON/HOBBY (KHOU)

Cloudy
82.9 F

HOUSTON/UNIV (KMCJ)

Cloudy
80.6 F

Advertise Here


Advertise Here